Time,TemperatureF,DewpointF,PressureIn,WindDirection,WindDirectionDegrees,WindSpeedMPH,WindSpeedGustMPH,Humidity,HourlyPrecipIn,Conditions,Clouds,dailyrainin,SoftwareType,DateUTC
2013-02-02 00:00:00,28.6,7.9,30.41,NE,46,4.0,8.0,41,0.00,,---,0.00,VWS V14.01,2013-02-02 05:00:00,
2013-02-02 00:01:00,28.6,7.9,30.41,NE,51,1.0,2.0,41,0.00,,---,0.00,VWS V14.01,2013-02-02 05:01:00,
2013-02-02 00:06:00,28.5,7.8,30.41,North,349,3.0,3.0,41,0.00,,---,0.00,VWS V14.01,2013-02-02 05:06:00,
2013-02-02 00:11:00,28.4,8.2,30.40,NE,54,2.0,4.0,42,0.00,,---,0.00,VWS V14.01,2013-02-02 05:11:00,
2013-02-02 00:16:00,28.2,8.6,30.40,NE,38,5.0,5.0,43,0.00,,---,0.00,VWS V14.01,2013-02-02 05:16:00,
2013-02-02 00:21:00,28.2,8.1,30.41,East,85,3.0,5.0,42,0.00,,---,0.00,VWS V14.01,2013-02-02 05:21:00,
2013-02-02 00:26:00,28.2,8.1,30.40,NNW,339,1.0,3.0,42,0.00,,---,0.00,VWS V14.01,2013-02-02 05:26:00,
2013-02-02 00:31:00,28.0,8.4,30.40,NNE,31,1.0,1.0,43,0.00,,---,0.00,VWS V14.01,2013-02-02 05:31:00,
2013-02-02 00:36:00,27.9,8.3,30.41,NNE,30,0.0,0.0,43,0.00,,---,0.00,VWS V14.01,2013-02-02 05:36:00,
2013-02-02 00:41:00,27.8,8.2,30.40,NE,34,2.0,6.0,43,0.00,,---,0.00,VWS V14.01,2013-02-02 05:41:00,
2013-02-02 00:46:00,27.7,8.1,30.40,NE,51,2.0,2.0,43,0.00,,---,0.00,VWS V14.01,2013-02-02 05:46:00,
2013-02-02 00:51:00,27.6,8.6,30.41,ENE,60,2.0,3.0,44,0.00,,---,0.00,VWS V14.01,2013-02-02 05:51:00,
2013-02-02 00:57:00,27.6,8.0,30.41,NE,50,1.0,3.0,43,0.00,,---,0.00,VWS V14.01,2013-02-02 05:57:00,
2013-02-02 01:02:00,27.7,8.1,30.40,NE,46,4.0,4.0,43,0.00,,---,0.00,VWS V14.01,2013-02-02 06:02:00,
2013-02-02 01:07:00,27.7,8.1,30.40,NE,41,2.0,3.0,43,0.00,,---,0.00,VWS V14.01,2013-02-02 06:07:00,
2013-02-02 01:12:00,27.7,7.6,30.40,East,85,2.0,6.0,42,0.00,,---,0.00,VWS V14.01,2013-02-02 06:12:00,
2013-02-02 01:17:00,27.7,7.6,30.40,ENE,65,2.0,5.0,42,0.00,,---,0.00,VWS V14.01,2013-02-02 06:17:00,
2013-02-02 01:22:00,27.7,8.1,30.40,NE,46,1.0,3.0,43,0.00,,---,0.00,VWS V14.01,2013-02-02 06:22:00,
2013-02-02 01:27:00,27.6,8.0,30.41,ENE,65,1.0,2.0,43,0.00,,---,0.00,VWS V14.01,2013-02-02 06:27:00,
2013-02-02 01:32:00,27.5,7.9,30.40,NE,51,2.0,2.0,43,0.00,,---,0.00,VWS V14.01,2013-02-02 06:32:00,
2013-02-02 01:37:00,27.4,7.9,30.40,ENE,70,2.0,2.0,43,0.00,,---,0.00,VWS V14.01,2013-02-02 06:37:00,
2013-02-02 01:42:00,27.4,7.9,30.40,East,79,0.0,3.0,43,0.00,,---,0.00,VWS V14.01,2013-02-02 06:42:00,
2013-02-02 01:47:00,27.4,7.9,30.41,NE,47,1.0,3.0,43,0.00,,---,0.00,VWS V14.01,2013-02-02 06:47:00,
2013-02-02 01:52:00,27.3,7.8,30.41,NE,38,1.0,1.0,43,0.00,,---,0.00,VWS V14.01,2013-02-02 06:52:00,
2013-02-02 01:57:00,27.2,8.2,30.41,ENE,67,1.0,3.0,44,0.00,,---,0.00,VWS V14.01,2013-02-02 06:57:00,
2013-02-02 02:02:00,27.0,8.5,30.41,ENE,77,3.0,4.0,45,0.00,,---,0.00,VWS V14.01,2013-02-02 07:02:00,
2013-02-02 02:07:00,27.0,8.0,30.40,ENE,58,2.0,2.0,44,0.00,,---,0.00,VWS V14.01,2013-02-02 07:07:00,
2013-02-02 02:12:00,26.9,8.4,30.40,East,80,1.0,2.0,45,0.00,,---,0.00,VWS V14.01,2013-02-02 07:12:00,
2013-02-02 02:17:00,26.8,8.3,30.41,East,81,1.0,2.0,45,0.00,,---,0.00,VWS V14.01,2013-02-02 07:17:00,
2013-02-02 02:22:00,26.7,8.2,30.40,East,88,1.0,1.0,45,0.00,,---,0.00,VWS V14.01,2013-02-02 07:22:00,
2013-02-02 02:27:00,26.6,8.1,30.40,East,85,2.0,3.0,45,0.00,,---,0.00,VWS V14.01,2013-02-02 07:27:00,
2013-02-02 02:32:00,26.3,7.9,30.40,ENE,72,0.0,1.0,45,0.00,,---,0.00,VWS V14.01,2013-02-02 07:32:00,
2013-02-02 02:37:00,26.1,8.2,30.40,East,98,0.0,0.0,46,0.00,,---,0.00,VWS V14.01,2013-02-02 07:37:00,
2013-02-02 02:42:00,25.9,8.0,30.40,ENE,77,1.0,1.0,46,0.00,,---,0.00,VWS V14.01,2013-02-02 07:42:00,
2013-02-02 02:47:00,25.8,7.9,30.40,ENE,74,1.0,2.0,46,0.00,,---,0.00,VWS V14.01,2013-02-02 07:47:00,
2013-02-02 02:52:00,25.7,8.3,30.40,ESE,121,1.0,2.0,47,0.00,,---,0.00,VWS V14.01,2013-02-02 07:52:00,
2013-02-02 02:57:00,25.7,8.7,30.41,East,88,1.0,1.0,48,0.00,,---,0.00,VWS V14.01,2013-02-02 07:57:00,
2013-02-02 03:05:00,25.4,8.5,30.42,East,79,0.0,1.0,48,0.00,,---,0.00,VWS V14.01,2013-02-02 08:05:00,
2013-02-02 03:10:00,25.2,8.3,30.42,East,79,0.0,0.0,48,0.00,,---,0.00,VWS V14.01,2013-02-02 08:10:00,
2013-02-02 03:16:00,25.1,8.6,30.42,North,349,0.0,1.0,49,0.00,,---,0.00,VWS V14.01,2013-02-02 08:16:00,
2013-02-02 03:21:00,25.0,8.1,30.42,ESE,115,0.0,1.0,48,0.00,,---,0.00,VWS V14.01,2013-02-02 08:21:00,
2013-02-02 03:26:00,25.1,8.2,30.42,ESE,115,0.0,1.0,48,0.00,,---,0.00,VWS V14.01,2013-02-02 08:26:00,
2013-02-02 03:31:00,24.9,8.0,30.41,ESE,115,0.0,0.0,48,0.00,,---,0.00,VWS V14.01,2013-02-02 08:31:00,
2013-02-02 03:36:00,24.8,8.4,30.42,ESE,115,0.0,1.0,49,0.00,,---,0.00,VWS V14.01,2013-02-02 08:36:00,
2013-02-02 03:41:00,24.7,8.3,30.42,ESE,115,0.0,0.0,49,0.00,,---,0.00,VWS V14.01,2013-02-02 08:41:00,
2013-02-02 03:46:00,24.7,8.3,30.41,ESE,105,0.0,1.0,49,0.00,,---,0.00,VWS V14.01,2013-02-02 08:46:00,
2013-02-02 03:51:00,24.8,8.4,30.41,NE,53,1.0,1.0,49,0.00,,---,0.00,VWS V14.01,2013-02-02 08:51:00,
2013-02-02 03:56:00,24.9,8.9,30.41,ENE,66,0.0,2.0,50,0.00,,---,0.00,VWS V14.01,2013-02-02 08:56:00,
2013-02-02 04:01:00,24.8,9.7,30.41,ENE,66,1.0,2.0,52,0.00,,---,0.00,VWS V14.01,2013-02-02 09:01:00,
2013-02-02 04:06:00,24.8,9.2,30.41,ENE,65,1.0,2.0,51,0.00,,---,0.00,VWS V14.01,2013-02-02 09:06:00,
2013-02-02 04:11:00,24.8,8.8,30.40,East,93,2.0,2.0,50,0.00,,---,0.00,VWS V14.01,2013-02-02 09:11:00,
2013-02-02 04:16:00,24.7,8.7,30.41,ENE,77,1.0,2.0,50,0.00,,---,0.00,VWS V14.01,2013-02-02 09:16:00,
2013-02-02 04:21:00,24.7,8.7,30.40,East,83,1.0,3.0,50,0.00,,---,0.00,VWS V14.01,2013-02-02 09:21:00,
2013-02-02 04:26:00,24.6,8.6,30.41,ENE,57,0.0,3.0,50,0.00,,---,0.00,VWS V14.01,2013-02-02 09:26:00,
2013-02-02 04:31:00,24.4,8.9,30.40,ESE,102,1.0,3.0,51,0.00,,---,0.00,VWS V14.01,2013-02-02 09:31:00,
2013-02-02 04:36:00,24.3,8.8,30.40,ESE,120,1.0,3.0,51,0.00,,---,0.00,VWS V14.01,2013-02-02 09:36:00,
2013-02-02 04:41:00,24.2,9.6,30.40,ESE,113,0.0,3.0,53,0.00,,---,0.00,VWS V14.01,2013-02-02 09:41:00,
2013-02-02 04:46:00,24.1,9.9,30.40,ESE,102,1.0,3.0,54,0.00,,---,0.00,VWS V14.01,2013-02-02 09:46:00,
2013-02-02 04:51:00,24.0,9.4,30.40,ESE,115,2.0,4.0,53,0.00,,---,0.00,VWS V14.01,2013-02-02 09:51:00,
2013-02-02 04:56:00,23.9,9.7,30.40,ESE,123,1.0,4.0,54,0.00,,---,0.00,VWS V14.01,2013-02-02 09:56:00,
2013-02-02 05:01:00,23.8,9.6,30.40,East,92,1.0,3.0,54,0.00,,---,0.00,VWS V14.01,2013-02-02 10:01:00,
2013-02-02 05:06:00,23.9,9.7,30.40,ESE,117,3.0,3.0,54,0.00,,---,0.00,VWS V14.01,2013-02-02 10:06:00,
2013-02-02 05:11:00,23.8,10.0,30.40,ESE,112,4.0,4.0,55,0.00,,---,0.00,VWS V14.01,2013-02-02 10:11:00,
2013-02-02 05:16:00,23.7,10.3,30.39,East,94,3.0,6.0,56,0.00,,---,0.00,VWS V14.01,2013-02-02 10:16:00,
2013-02-02 05:21:00,23.7,10.3,30.39,East,79,3.0,6.0,56,0.00,,---,0.00,VWS V14.01,2013-02-02 10:21:00,
2013-02-02 05:26:00,23.7,10.3,30.39,SE,139,2.0,6.0,56,0.00,,---,0.00,VWS V14.01,2013-02-02 10:26:00,
2013-02-02 05:31:00,23.6,10.2,30.40,East,94,2.0,5.0,56,0.00,,---,0.00,VWS V14.01,2013-02-02 10:31:00,
2013-02-02 05:36:00,23.6,10.2,30.40,ESE,104,3.0,5.0,56,0.00,,---,0.00,VWS V14.01,2013-02-02 10:36:00,
2013-02-02 05:41:00,23.6,10.2,30.40,ESE,117,2.0,4.0,56,0.00,,---,0.00,VWS V14.01,2013-02-02 10:41:00,
2013-02-02 05:46:00,23.6,10.2,30.40,ESE,120,2.0,4.0,56,0.00,,---,0.00,VWS V14.01,2013-02-02 10:46:00,
2013-02-02 05:51:00,23.5,10.1,30.40,ESE,112,3.0,3.0,56,0.00,,---,0.00,VWS V14.01,2013-02-02 10:51:00,
2013-02-02 05:56:00,23.4,10.0,30.40,ESE,109,3.0,4.0,56,0.00,,---,0.00,VWS V14.01,2013-02-02 10:56:00,
2013-02-02 06:01:00,23.4,10.0,30.40,SE,127,1.0,4.0,56,0.00,,---,0.00,VWS V14.01,2013-02-02 11:01:00,
2013-02-02 06:06:00,23.4,10.0,30.41,ESE,122,1.0,3.0,56,0.00,,---,0.00,VWS V14.01,2013-02-02 11:06:00,
2013-02-02 06:11:00,23.3,9.9,30.41,ESE,122,2.0,3.0,56,0.00,,---,0.00,VWS V14.01,2013-02-02 11:11:00,
2013-02-02 06:16:00,23.2,10.2,30.41,ESE,105,2.0,3.0,57,0.00,,---,0.00,VWS V14.01,2013-02-02 11:16:00,
2013-02-02 06:21:00,23.2,9.8,30.42,ESE,120,0.0,2.0,56,0.00,,---,0.00,VWS V14.01,2013-02-02 11:21:00,
2013-02-02 06:26:00,23.2,10.2,30.42,ESE,122,1.0,3.0,57,0.00,,---,0.00,VWS V14.01,2013-02-02 11:26:00,
2013-02-02 06:31:00,23.2,10.2,30.42,ESE,122,2.0,2.0,57,0.00,,---,0.00,VWS V14.01,2013-02-02 11:31:00,
2013-02-02 06:36:00,23.2,10.6,30.43,SE,136,0.0,2.0,58,0.00,,---,0.00,VWS V14.01,2013-02-02 11:36:00,
2013-02-02 06:41:00,23.0,10.1,30.43,ESE,118,0.0,1.0,57,0.00,,---,0.00,VWS V14.01,2013-02-02 11:41:00,
2013-02-02 06:46:00,22.9,10.0,30.43,ESE,122,0.0,1.0,57,0.00,,---,0.00,VWS V14.01,2013-02-02 11:46:00,
2013-02-02 06:51:00,22.8,9.5,30.43,ESE,106,0.0,1.0,56,0.00,,---,0.00,VWS V14.01,2013-02-02 11:51:00,
2013-02-02 06:56:00,22.9,9.6,30.43,ESE,105,0.0,1.0,56,0.00,,---,0.00,VWS V14.01,2013-02-02 11:56:00,
2013-02-02 07:01:00,23.0,10.1,30.43,ESE,105,1.0,1.0,57,0.00,,---,0.00,VWS V14.01,2013-02-02 12:01:00,
2013-02-02 07:06:00,23.1,10.1,30.43,ESE,112,1.0,1.0,57,0.00,,---,0.00,VWS V14.01,2013-02-02 12:06:00,
2013-02-02 07:11:00,23.1,9.8,30.43,ESE,111,2.0,2.0,56,0.00,,---,0.00,VWS V14.01,2013-02-02 12:11:00,
2013-02-02 07:16:00,23.1,9.8,30.43,ESE,110,2.0,2.0,56,0.00,,---,0.00,VWS V14.01,2013-02-02 12:16:00,
2013-02-02 07:21:00,23.2,9.8,30.43,ESE,110,2.0,3.0,56,0.00,,---,0.00,VWS V14.01,2013-02-02 12:21:00,
2013-02-02 07:26:00,23.2,9.8,30.43,East,86,0.0,2.0,56,0.00,,---,0.00,VWS V14.01,2013-02-02 12:26:00,
2013-02-02 07:31:00,23.3,9.5,30.44,ESE,118,0.0,2.0,55,0.00,,---,0.00,VWS V14.01,2013-02-02 12:31:00,
2013-02-02 07:36:00,23.6,9.8,30.44,ENE,70,0.0,1.0,55,0.00,,---,0.00,VWS V14.01,2013-02-02 12:36:00,
2013-02-02 07:41:00,23.9,10.1,30.44,ENE,70,0.0,1.0,55,0.00,,---,0.00,VWS V14.01,2013-02-02 12:41:00,
2013-02-02 07:46:00,24.2,10.0,30.44,SE,127,1.0,3.0,54,0.00,,---,0.00,VWS V14.01,2013-02-02 12:46:00,
2013-02-02 07:51:00,24.4,10.1,30.44,East,82,2.0,2.0,54,0.00,,---,0.00,VWS V14.01,2013-02-02 12:51:00,
2013-02-02 07:56:00,24.6,9.9,30.44,ESE,103,0.0,2.0,53,0.00,,---,0.00,VWS V14.01,2013-02-02 12:56:00,
2013-02-02 08:01:00,24.9,10.2,30.44,ESE,120,0.0,2.0,53,0.00,,---,0.00,VWS V14.01,2013-02-02 13:01:00,
2013-02-02 08:06:00,25.2,10.1,30.44,East,98,0.0,3.0,52,0.00,,---,0.00,VWS V14.01,2013-02-02 13:06:00,
2013-02-02 08:11:00,25.6,10.9,30.45,ENE,68,1.0,3.0,53,0.00,,---,0.00,VWS V14.01,2013-02-02 13:11:00,
2013-02-02 08:16:00,26.1,11.3,30.45,SSE,153,1.0,2.0,53,0.00,,---,0.00,VWS V14.01,2013-02-02 13:16:00,
2013-02-02 08:21:00,26.4,11.6,30.45,SE,134,1.0,3.0,53,0.00,,---,0.00,VWS V14.01,2013-02-02 13:21:00,
2013-02-02 08:26:00,26.5,11.7,30.45,East,87,3.0,3.0,53,0.00,,---,0.00,VWS V14.01,2013-02-02 13:26:00,
2013-02-02 08:31:00,26.6,11.4,30.45,ESE,113,2.0,4.0,52,0.00,,---,0.00,VWS V14.01,2013-02-02 13:31:00,
2013-02-02 08:36:00,26.9,11.6,30.44,ESE,121,4.0,4.0,52,0.00,,---,0.00,VWS V14.01,2013-02-02 13:36:00,
2013-02-02 08:41:00,27.1,10.9,30.44,East,94,3.0,9.0,50,0.00,,---,0.00,VWS V14.01,2013-02-02 13:41:00,
2013-02-02 08:46:00,27.2,10.1,30.44,SE,124,3.0,7.0,48,0.00,,---,0.00,VWS V14.01,2013-02-02 13:46:00,
2013-02-02 08:51:00,27.5,10.4,30.44,SE,144,4.0,7.0,48,0.00,,---,0.00,VWS V14.01,2013-02-02 13:51:00,
2013-02-02 08:56:00,27.7,10.6,30.44,SE,127,5.0,5.0,48,0.00,,---,0.00,VWS V14.01,2013-02-02 13:56:00,
2013-02-02 09:01:00,28.0,10.9,30.44,SE,127,6.0,8.0,48,0.00,,---,0.00,VWS V14.01,2013-02-02 14:01:00,
2013-02-02 09:06:00,27.9,10.3,30.44,ESE,113,9.0,13.0,47,0.00,,---,0.00,VWS V14.01,2013-02-02 14:06:00,
2013-02-02 09:11:00,28.3,11.6,30.44,SSE,150,4.0,9.0,49,0.00,,---,0.00,VWS V14.01,2013-02-02 14:11:00,
2013-02-02 09:16:00,28.8,11.1,30.44,SE,124,2.0,7.0,47,0.00,,---,0.00,VWS V14.01,2013-02-02 14:16:00,
2013-02-02 09:21:00,29.3,11.1,30.43,SE,129,3.0,6.0,46,0.00,,---,0.00,VWS V14.01,2013-02-02 14:21:00,
2013-02-02 09:26:00,29.8,11.1,30.43,ESE,120,4.0,7.0,45,0.00,,---,0.00,VWS V14.01,2013-02-02 14:26:00,
2013-02-02 09:31:00,29.7,10.0,30.43,SE,143,3.0,10.0,43,0.00,,---,0.00,VWS V14.01,2013-02-02 14:31:00,
2013-02-02 09:36:00,29.9,10.1,30.43,South,172,5.0,8.0,43,0.00,,---,0.00,VWS V14.01,2013-02-02 14:36:00,
2013-02-02 09:41:00,30.5,10.7,30.43,East,92,5.0,7.0,43,0.00,,---,0.00,VWS V14.01,2013-02-02 14:41:00,
2013-02-02 09:46:00,31.0,11.1,30.43,SE,127,2.0,5.0,43,0.00,,---,0.00,VWS V14.01,2013-02-02 14:46:00,
2013-02-02 09:51:00,31.6,10.1,30.42,East,84,0.0,7.0,40,0.00,,---,0.00,VWS V14.01,2013-02-02 14:51:00,
2013-02-02 09:56:00,31.7,9.0,30.42,ESE,113,7.0,11.0,38,0.00,,---,0.00,VWS V14.01,2013-02-02 14:56:00,
2013-02-02 10:01:00,32.0,9.3,30.42,SE,138,0.0,8.0,38,0.00,,---,0.00,VWS V14.01,2013-02-02 15:01:00,
2013-02-02 10:06:00,32.5,10.3,30.42,NNE,25,1.0,6.0,39,0.00,,---,0.00,VWS V14.01,2013-02-02 15:06:00,
2013-02-02 10:11:00,33.1,9.7,30.42,SE,124,5.0,9.0,37,0.00,,---,0.00,VWS V14.01,2013-02-02 15:11:00,
2013-02-02 10:16:00,32.9,8.9,30.42,SE,140,5.0,9.0,36,0.00,,---,0.00,VWS V14.01,2013-02-02 15:16:00,
2013-02-02 10:21:00,32.8,9.4,30.42,ESE,109,3.0,4.0,37,0.00,,---,0.00,VWS V14.01,2013-02-02 15:21:00,
2013-02-02 10:26:00,33.4,9.9,30.42,SSE,165,8.0,8.0,37,0.00,,---,0.00,VWS V14.01,2013-02-02 15:26:00,
2013-02-02 10:31:00,33.7,9.0,30.41,SSE,152,6.0,9.0,35,0.00,,---,0.00,VWS V14.01,2013-02-02 15:31:00,
2013-02-02 10:36:00,33.5,8.8,30.42,SE,143,5.0,8.0,35,0.00,,---,0.00,VWS V14.01,2013-02-02 15:36:00,
2013-02-02 10:41:00,34.0,9.2,30.41,SSE,160,2.0,7.0,35,0.00,,---,0.00,VWS V14.01,2013-02-02 15:41:00,
2013-02-02 10:46:00,34.4,9.6,30.41,ESE,117,2.0,7.0,35,0.00,,---,0.00,VWS V14.01,2013-02-02 15:46:00,
2013-02-02 10:51:00,35.1,10.2,30.41,SE,129,2.0,6.0,35,0.00,,---,0.00,VWS V14.01,2013-02-02 15:51:00,
2013-02-02 10:56:00,35.1,9.6,30.40,South,169,4.0,7.0,34,0.00,,---,0.00,VWS V14.01,2013-02-02 15:56:00,
2013-02-02 11:01:00,35.3,9.1,30.40,SSE,165,4.0,7.0,33,0.00,,---,0.00,VWS V14.01,2013-02-02 16:01:00,
2013-02-02 11:06:00,35.6,10.0,30.40,South,191,2.0,2.0,34,0.00,,---,0.00,VWS V14.01,2013-02-02 16:06:00,
2013-02-02 11:11:00,35.7,9.4,30.40,SSW,205,2.0,2.0,33,0.00,,---,0.00,VWS V14.01,2013-02-02 16:11:00,
2013-02-02 11:16:00,36.2,9.2,30.39,SE,124,4.0,7.0,32,0.00,,---,0.00,VWS V14.01,2013-02-02 16:16:00,
2013-02-02 11:21:00,36.5,9.5,30.38,SSE,153,4.0,4.0,32,0.00,,---,0.00,VWS V14.01,2013-02-02 16:21:00,
2013-02-02 11:26:00,37.1,10.7,30.38,SSE,163,5.0,5.0,33,0.00,,---,0.00,VWS V14.01,2013-02-02 16:26:00,
2013-02-02 11:31:00,37.7,10.5,30.37,SE,146,9.0,9.0,32,0.00,,---,0.00,VWS V14.01,2013-02-02 16:31:00,
2013-02-02 11:36:00,37.6,9.7,30.37,South,176,6.0,6.0,31,0.00,,---,0.00,VWS V14.01,2013-02-02 16:36:00,
2013-02-02 11:41:00,37.8,10.6,30.36,SSW,194,8.0,8.0,32,0.00,,---,0.00,VWS V14.01,2013-02-02 16:41:00,
2013-02-02 11:46:00,37.8,9.9,30.35,SW,221,2.0,4.0,31,0.00,,---,0.00,VWS V14.01,2013-02-02 16:46:00,
2013-02-02 11:51:00,38.1,9.4,30.35,South,174,10.0,10.0,30,0.00,,---,0.00,VWS V14.01,2013-02-02 16:51:00,
2013-02-02 11:56:00,38.6,9.9,30.35,SSE,163,7.0,8.0,30,0.00,,---,0.00,VWS V14.01,2013-02-02 16:56:00,
2013-02-02 12:01:00,38.8,10.8,30.34,SSW,205,5.0,5.0,31,0.00,,---,0.00,VWS V14.01,2013-02-02 17:01:00,
2013-02-02 12:06:00,39.2,10.4,30.34,SE,139,5.0,6.0,30,0.00,,---,0.00,VWS V14.01,2013-02-02 17:06:00,
2013-02-02 12:11:00,39.6,10.7,30.33,SE,142,6.0,6.0,30,0.00,,---,0.00,VWS V14.01,2013-02-02 17:11:00,
2013-02-02 12:16:00,40.6,10.1,30.33,South,174,11.0,11.0,28,0.00,,---,0.00,VWS V14.01,2013-02-02 17:16:00,
2013-02-02 12:21:00,40.7,9.3,30.33,SSW,200,8.0,9.0,27,0.00,,---,0.00,VWS V14.01,2013-02-02 17:21:00,
2013-02-02 12:26:00,41.3,9.9,30.32,SW,223,5.0,8.0,27,0.00,,---,0.00,VWS V14.01,2013-02-02 17:26:00,
2013-02-02 12:31:00,41.3,9.9,30.32,WSW,246,8.0,8.0,27,0.00,,---,0.00,VWS V14.01,2013-02-02 17:31:00,
2013-02-02 12:36:00,41.6,10.1,30.32,SW,228,4.0,8.0,27,0.00,,---,0.00,VWS V14.01,2013-02-02 17:36:00,
2013-02-02 12:41:00,41.9,10.4,30.31,South,190,6.0,9.0,27,0.00,,---,0.00,VWS V14.01,2013-02-02 17:41:00,
2013-02-02 12:46:00,41.8,10.3,30.31,WSW,249,6.0,6.0,27,0.00,,---,0.00,VWS V14.01,2013-02-02 17:46:00,
2013-02-02 12:51:00,42.0,9.6,30.30,SW,221,10.0,13.0,26,0.00,,---,0.00,VWS V14.01,2013-02-02 17:51:00,
2013-02-02 12:56:00,41.8,10.3,30.30,SE,142,2.0,7.0,27,0.00,,---,0.00,VWS V14.01,2013-02-02 17:56:00,
2013-02-02 13:01:00,42.8,11.1,30.29,WSW,247,9.0,11.0,27,0.00,,---,0.00,VWS V14.01,2013-02-02 18:01:00,
2013-02-02 13:06:00,43.4,11.7,30.29,SW,214,5.0,7.0,27,0.00,,---,0.00,VWS V14.01,2013-02-02 18:06:00,
2013-02-02 13:11:00,43.2,9.8,30.28,SW,230,5.0,9.0,25,0.00,,---,0.00,VWS V14.01,2013-02-02 18:11:00,
2013-02-02 13:16:00,43.3,10.7,30.28,SE,143,4.0,5.0,26,0.00,,---,0.00,VWS V14.01,2013-02-02 18:16:00,
2013-02-02 13:21:00,43.5,10.0,30.27,SSW,207,8.0,9.0,25,0.00,,---,0.00,VWS V14.01,2013-02-02 18:21:00,
2013-02-02 13:26:00,43.4,10.8,30.26,SSW,194,8.0,9.0,26,0.00,,---,0.00,VWS V14.01,2013-02-02 18:26:00,
2013-02-02 13:31:00,43.3,10.7,30.28,SW,236,3.0,8.0,26,0.00,,---,0.00,VWS V14.01,2013-02-02 18:31:00,
2013-02-02 13:36:00,43.5,11.8,30.27,West,262,2.0,2.0,27,0.00,,---,0.00,VWS V14.01,2013-02-02 18:36:00,
2013-02-02 13:41:00,44.1,10.5,30.27,SSW,195,8.0,9.0,25,0.00,,---,0.00,VWS V14.01,2013-02-02 18:41:00,
2013-02-02 13:46:00,44.1,11.4,30.27,WSW,246,7.0,9.0,26,0.00,,---,0.00,VWS V14.01,2013-02-02 18:46:00,
2013-02-02 13:51:00,44.1,10.5,30.26,WSW,240,3.0,3.0,25,0.00,,---,0.00,VWS V14.01,2013-02-02 18:51:00,
2013-02-02 13:56:00,44.4,10.8,30.26,West,276,4.0,4.0,25,0.00,,---,0.00,VWS V14.01,2013-02-02 18:56:00,
2013-02-02 14:01:00,44.4,11.7,30.26,SSW,203,3.0,7.0,26,0.00,,---,0.00,VWS V14.01,2013-02-02 19:01:00,
2013-02-02 14:06:00,44.7,11.1,30.26,West,269,6.0,7.0,25,0.00,,---,0.00,VWS V14.01,2013-02-02 19:06:00,
2013-02-02 14:11:00,44.7,12.8,30.26,WSW,256,1.0,2.0,27,0.00,,---,0.00,VWS V14.01,2013-02-02 19:11:00,
2013-02-02 14:16:00,45.7,13.6,30.26,West,276,4.0,5.0,27,0.00,,---,0.00,VWS V14.01,2013-02-02 19:16:00,
2013-02-02 14:21:00,45.8,12.9,30.25,SW,231,11.0,11.0,26,0.00,,---,0.00,VWS V14.01,2013-02-02 19:21:00,
2013-02-02 14:26:00,45.7,11.0,30.25,SSW,210,7.0,10.0,24,0.00,,---,0.00,VWS V14.01,2013-02-02 19:26:00,
2013-02-02 14:32:00,45.5,11.7,30.25,SW,228,7.0,8.0,25,0.00,,---,0.00,VWS V14.01,2013-02-02 19:32:00,
2013-02-02 14:37:00,45.5,12.6,30.25,WSW,240,9.0,11.0,26,0.00,,---,0.00,VWS V14.01,2013-02-02 19:37:00,
2013-02-02 14:42:00,45.7,11.9,30.24,WSW,257,1.0,8.0,25,0.00,,---,0.00,VWS V14.01,2013-02-02 19:42:00,
2013-02-02 14:47:00,46.1,12.2,30.23,SW,221,5.0,6.0,25,0.00,,---,0.00,VWS V14.01,2013-02-02 19:47:00,
2013-02-02 14:52:00,46.3,11.5,30.23,SW,234,10.0,10.0,24,0.00,,---,0.00,VWS V14.01,2013-02-02 19:52:00,
2013-02-02 14:57:00,46.5,11.7,30.23,SW,232,11.0,12.0,24,0.00,,---,0.00,VWS V14.01,2013-02-02 19:57:00,
2013-02-02 15:02:00,46.8,11.0,30.23,South,179,7.0,10.0,23,0.00,,---,0.00,VWS V14.01,2013-02-02 20:02:00,
2013-02-02 15:07:00,47.0,11.1,30.22,SW,230,9.0,10.0,23,0.00,,---,0.00,VWS V14.01,2013-02-02 20:07:00,
2013-02-02 15:12:00,47.2,11.3,30.22,WNW,289,8.0,12.0,23,0.00,,---,0.00,VWS V14.01,2013-02-02 20:12:00,
2013-02-02 15:17:00,47.3,11.4,30.22,SSW,205,5.0,11.0,23,0.00,,---,0.00,VWS V14.01,2013-02-02 20:17:00,
2013-02-02 15:22:00,47.6,13.5,30.22,SW,225,4.0,9.0,25,0.00,,---,0.00,VWS V14.01,2013-02-02 20:22:00,
2013-02-02 15:27:00,47.8,11.8,30.22,SW,226,13.0,15.0,23,0.00,,---,0.00,VWS V14.01,2013-02-02 20:27:00,
2013-02-02 15:32:00,47.5,12.5,30.21,SW,232,8.0,16.0,24,0.00,,---,0.00,VWS V14.01,2013-02-02 20:32:00,
2013-02-02 15:37:00,47.5,13.4,30.21,SSW,200,8.0,10.0,25,0.00,,---,0.00,VWS V14.01,2013-02-02 20:37:00,
2013-02-02 15:42:00,47.7,13.6,30.21,West,261,2.0,9.0,25,0.00,,---,0.00,VWS V14.01,2013-02-02 20:42:00,
2013-02-02 15:47:00,47.7,13.6,30.21,SSW,194,10.0,16.0,25,0.00,,---,0.00,VWS V14.01,2013-02-02 20:47:00,
2013-02-02 15:52:00,47.9,13.8,30.20,SSW,203,7.0,8.0,25,0.00,,---,0.00,VWS V14.01,2013-02-02 20:52:00,
2013-02-02 15:57:00,48.4,14.2,30.20,WSW,248,6.0,13.0,25,0.00,,---,0.00,VWS V14.01,2013-02-02 20:57:00,
2013-02-02 16:02:00,48.8,14.6,30.20,SSW,200,13.0,13.0,25,0.00,,---,0.00,VWS V14.01,2013-02-02 21:02:00,
2013-02-02 16:07:00,48.9,14.6,30.19,SW,226,6.0,10.0,25,0.00,,---,0.00,VWS V14.01,2013-02-02 21:07:00,
2013-02-02 16:12:00,48.5,14.3,30.19,SSW,194,8.0,11.0,25,0.00,,---,0.00,VWS V14.01,2013-02-02 21:12:00,
2013-02-02 16:17:00,47.9,14.7,30.19,SSW,207,10.0,11.0,26,0.00,,---,0.00,VWS V14.01,2013-02-02 21:17:00,
2013-02-02 16:22:00,47.6,15.3,30.19,SW,234,6.0,11.0,27,0.00,,---,0.00,VWS V14.01,2013-02-02 21:22:00,
2013-02-02 16:27:00,47.5,15.2,30.19,SSW,209,9.0,11.0,27,0.00,,---,0.00,VWS V14.01,2013-02-02 21:27:00,
2013-02-02 16:32:00,47.6,15.3,30.18,SW,229,4.0,12.0,27,0.00,,---,0.00,VWS V14.01,2013-02-02 21:32:00,
2013-02-02 16:37:00,48.0,15.6,30.18,SW,215,5.0,9.0,27,0.00,,---,0.00,VWS V14.01,2013-02-02 21:37:00,
2013-02-02 16:42:00,48.0,15.6,30.18,West,262,1.0,8.0,27,0.00,,---,0.00,VWS V14.01,2013-02-02 21:42:00,
2013-02-02 16:47:00,48.4,16.0,30.18,SSW,208,6.0,10.0,27,0.00,,---,0.00,VWS V14.01,2013-02-02 21:47:00,
2013-02-02 16:52:00,48.4,16.0,30.17,SW,224,6.0,10.0,27,0.00,,---,0.00,VWS V14.01,2013-02-02 21:52:00,
2013-02-02 16:57:00,48.1,15.7,30.17,SSW,208,7.0,13.0,27,0.00,,---,0.00,VWS V14.01,2013-02-02 21:57:00,
2013-02-02 17:02:00,47.9,16.4,30.17,SW,226,6.0,11.0,28,0.00,,---,0.00,VWS V14.01,2013-02-02 22:02:00,
2013-02-02 17:07:00,47.7,16.2,30.17,SSW,207,7.0,12.0,28,0.00,,---,0.00,VWS V14.01,2013-02-02 22:07:00,
2013-02-02 17:12:00,47.4,16.8,30.17,SSW,193,4.0,5.0,29,0.00,,---,0.00,VWS V14.01,2013-02-02 22:12:00,
2013-02-02 17:17:00,47.2,16.6,30.17,WSW,238,6.0,8.0,29,0.00,,---,0.00,VWS V14.01,2013-02-02 22:17:00,
2013-02-02 17:22:00,47.0,17.2,30.17,WSW,246,4.0,6.0,30,0.00,,---,0.00,VWS V14.01,2013-02-02 22:22:00,
2013-02-02 17:27:00,46.9,17.1,30.17,WSW,242,10.0,10.0,30,0.00,,---,0.00,VWS V14.01,2013-02-02 22:27:00,
2013-02-02 17:32:00,46.7,16.9,30.17,WSW,242,3.0,5.0,30,0.00,,---,0.00,VWS V14.01,2013-02-02 22:32:00,
2013-02-02 17:37:00,46.6,16.8,30.16,SSW,193,4.0,7.0,30,0.00,,---,0.00,VWS V14.01,2013-02-02 22:37:00,
2013-02-02 17:42:00,46.6,16.8,30.16,SW,227,3.0,6.0,30,0.00,,---,0.00,VWS V14.01,2013-02-02 22:42:00,
2013-02-02 17:47:00,46.5,17.5,30.15,SSE,160,9.0,10.0,31,0.00,,---,0.00,VWS V14.01,2013-02-02 22:47:00,
2013-02-02 17:52:00,46.5,17.5,30.15,SSE,165,6.0,8.0,31,0.00,,---,0.00,VWS V14.01,2013-02-02 22:52:00,
2013-02-02 17:57:00,46.5,17.5,30.15,South,188,6.0,7.0,31,0.00,,---,0.00,VWS V14.01,2013-02-02 22:57:00,
2013-02-02 18:02:00,46.5,18.2,30.15,WSW,246,3.0,8.0,32,0.00,,---,0.00,VWS V14.01,2013-02-02 23:02:00,
2013-02-02 18:07:00,46.4,18.2,30.14,SW,223,6.0,10.0,32,0.00,,---,0.00,VWS V14.01,2013-02-02 23:07:00,
2013-02-02 18:12:00,46.4,18.2,30.14,SW,229,3.0,10.0,32,0.00,,---,0.00,VWS V14.01,2013-02-02 23:12:00,
2013-02-02 18:17:00,46.4,18.2,30.14,SSW,194,6.0,7.0,32,0.00,,---,0.00,VWS V14.01,2013-02-02 23:17:00,
2013-02-02 18:22:00,46.4,18.2,30.14,SW,225,12.0,12.0,32,0.00,,---,0.00,VWS V14.01,2013-02-02 23:22:00,
2013-02-02 18:27:00,46.5,19.7,30.14,SSW,204,6.0,6.0,34,0.00,,---,0.00,VWS V14.01,2013-02-02 23:27:00,
2013-02-02 18:32:00,46.5,19.7,30.14,SSW,200,2.0,10.0,34,0.00,,---,0.00,VWS V14.01,2013-02-02 23:32:00,
2013-02-02 18:37:00,46.5,19.7,30.14,SSW,210,5.0,8.0,34,0.00,,---,0.00,VWS V14.01,2013-02-02 23:37:00,
2013-02-02 18:42:00,46.5,19.0,30.14,SW,214,6.0,9.0,33,0.00,,---,0.00,VWS V14.01,2013-02-02 23:42:00,
2013-02-02 18:47:00,46.5,19.0,30.15,SW,226,11.0,11.0,33,0.00,,---,0.00,VWS V14.01,2013-02-02 23:47:00,
2013-02-02 18:52:00,46.7,21.8,30.15,SW,223,11.0,11.0,37,0.00,,---,0.00,VWS V14.01,2013-02-02 23:52:00,
2013-02-02 18:57:00,46.7,22.5,30.14,WNW,294,4.0,15.0,38,0.00,,---,0.00,VWS V14.01,2013-02-02 23:57:00,
2013-02-02 19:02:00,46.7,23.1,30.14,WSW,243,8.0,9.0,39,0.00,,---,0.00,VWS V14.01,2013-02-03 00:02:00,
2013-02-02 19:07:00,46.7,23.7,30.14,West,278,3.0,9.0,40,0.00,,---,0.00,VWS V14.01,2013-02-03 00:07:00,
2013-02-02 19:12:00,46.7,24.3,30.14,SSW,198,4.0,13.0,41,0.00,,---,0.00,VWS V14.01,2013-02-03 00:12:00,
2013-02-02 19:17:00,46.7,23.7,30.14,SSW,200,4.0,9.0,40,0.00,,---,0.00,VWS V14.01,2013-02-03 00:17:00,
2013-02-02 19:22:00,46.7,23.7,30.14,SW,214,6.0,9.0,40,0.00,,---,0.00,VWS V14.01,2013-02-03 00:22:00,
2013-02-02 19:27:00,46.7,26.0,30.14,WSW,240,13.0,15.0,44,0.00,,---,0.00,VWS V14.01,2013-02-03 00:27:00,
2013-02-02 19:32:00,46.8,27.1,30.14,West,278,6.0,10.0,46,0.00,,---,0.00,VWS V14.01,2013-02-03 00:32:00,
2013-02-02 19:37:00,46.9,28.2,30.15,WSW,255,12.0,21.0,48,0.00,,---,0.00,VWS V14.01,2013-02-03 00:37:00,
2013-02-02 19:42:00,46.4,29.8,30.15,SSW,210,13.0,18.0,52,0.00,,---,0.00,VWS V14.01,2013-02-03 00:42:00,
2013-02-02 19:47:00,46.1,29.9,30.15,WSW,243,8.0,13.0,53,0.00,,---,0.00,VWS V14.01,2013-02-03 00:47:00,
2013-02-02 19:52:00,45.9,29.3,30.15,SW,228,9.0,17.0,52,0.00,,---,0.00,VWS V14.01,2013-02-03 00:52:00,
2013-02-02 19:57:00,45.9,29.3,30.15,South,179,10.0,15.0,52,0.00,,---,0.00,VWS V14.01,2013-02-03 00:57:00,
2013-02-02 20:02:00,45.9,28.8,30.16,WSW,238,10.0,12.0,51,0.00,,---,0.00,VWS V14.01,2013-02-03 01:02:00,
2013-02-02 20:07:00,45.8,30.1,30.16,SW,231,17.0,21.0,54,0.00,,---,0.00,VWS V14.01,2013-02-03 01:07:00,
2013-02-02 20:12:00,45.2,31.7,30.17,West,264,13.0,21.0,59,0.00,,---,0.00,VWS V14.01,2013-02-03 01:12:00,
2013-02-02 20:17:00,44.4,32.2,30.17,West,265,18.0,18.0,62,0.00,,---,0.00,VWS V14.01,2013-02-03 01:17:00,
2013-02-02 20:22:00,43.6,33.4,30.18,SW,228,7.0,17.0,67,0.00,,---,0.00,VWS V14.01,2013-02-03 01:22:00,
2013-02-02 20:27:00,42.8,34.1,30.18,SW,232,12.0,20.0,71,0.00,,---,0.00,VWS V14.01,2013-02-03 01:27:00,
2013-02-02 20:32:00,41.7,35.0,30.18,SW,222,12.0,20.0,77,0.00,,---,0.00,VWS V14.01,2013-02-03 01:32:00,
2013-02-02 20:37:00,40.9,35.5,30.18,SW,225,10.0,16.0,81,0.00,,---,0.00,VWS V14.01,2013-02-03 01:37:00,
2013-02-02 20:42:00,40.3,35.6,30.18,SW,233,16.0,21.0,83,0.00,,---,0.00,VWS V14.01,2013-02-03 01:42:00,
2013-02-02 20:47:00,39.8,35.7,30.18,South,189,6.0,9.0,85,0.00,,---,0.00,VWS V14.01,2013-02-03 01:47:00,
2013-02-02 20:52:00,39.5,35.7,30.18,WSW,256,8.0,11.0,86,0.01,,---,0.01,VWS V14.01,2013-02-03 01:52:00,
2013-02-02 20:57:00,39.3,35.5,30.18,SSW,200,9.0,14.0,86,0.01,,---,0.01,VWS V14.01,2013-02-03 01:57:00,
2013-02-02 21:02:00,39.1,35.6,30.18,SSW,205,8.0,9.0,87,0.01,,---,0.01,VWS V14.01,2013-02-03 02:02:00,
2013-02-02 21:07:00,38.9,35.7,30.17,SW,222,6.0,12.0,88,0.01,,---,0.01,VWS V14.01,2013-02-03 02:07:00,
2013-02-02 21:12:00,38.9,35.9,30.17,SW,221,9.0,9.0,89,0.01,,---,0.01,VWS V14.01,2013-02-03 02:12:00,
2013-02-02 21:17:00,38.9,35.9,30.17,WSW,239,4.0,10.0,89,0.01,,---,0.01,VWS V14.01,2013-02-03 02:17:00,
2013-02-02 21:22:00,38.8,36.1,30.16,SW,233,4.0,11.0,90,0.01,,---,0.01,VWS V14.01,2013-02-03 02:22:00,
2013-02-02 21:27:00,38.8,35.8,30.16,SW,222,6.0,10.0,89,0.01,,---,0.01,VWS V14.01,2013-02-03 02:27:00,
2013-02-02 21:32:00,38.7,36.0,30.17,SW,232,4.0,7.0,90,0.01,,---,0.01,VWS V14.01,2013-02-03 02:32:00,
2013-02-02 21:37:00,38.7,36.0,30.17,South,172,4.0,9.0,90,0.01,,---,0.01,VWS V14.01,2013-02-03 02:37:00,
2013-02-02 21:42:00,38.7,36.0,30.16,WSW,246,5.0,8.0,90,0.01,,---,0.01,VWS V14.01,2013-02-03 02:42:00,
2013-02-02 21:47:00,38.7,35.7,30.16,SW,234,4.0,10.0,89,0.01,,---,0.01,VWS V14.01,2013-02-03 02:47:00,
2013-02-02 21:52:00,38.7,35.7,30.16,WSW,239,9.0,9.0,89,0.00,,---,0.01,VWS V14.01,2013-02-03 02:52:00,
2013-02-02 21:57:00,38.7,35.7,30.15,WSW,238,8.0,11.0,89,0.00,,---,0.01,VWS V14.01,2013-02-03 02:57:00,
2013-02-02 22:02:00,38.8,35.8,30.16,WSW,243,5.0,12.0,89,0.00,,---,0.01,VWS V14.01,2013-02-03 03:02:00,
2013-02-02 22:07:00,38.8,35.8,30.15,WNW,298,0.0,12.0,89,0.00,,---,0.01,VWS V14.01,2013-02-03 03:07:00,
2013-02-02 22:12:00,38.9,35.9,30.15,SW,229,6.0,11.0,89,0.00,,---,0.01,VWS V14.01,2013-02-03 03:12:00,
2013-02-02 22:17:00,39.0,36.0,30.15,WNW,287,6.0,6.0,89,0.00,,---,0.01,VWS V14.01,2013-02-03 03:17:00,
2013-02-02 22:22:00,39.0,36.0,30.15,WSW,256,5.0,10.0,89,0.00,,---,0.01,VWS V14.01,2013-02-03 03:22:00,
2013-02-02 22:27:00,39.1,36.1,30.15,SW,225,4.0,9.0,89,0.00,,---,0.01,VWS V14.01,2013-02-03 03:27:00,
2013-02-02 22:32:00,39.2,36.0,30.15,SW,221,4.0,8.0,88,0.00,,---,0.01,VWS V14.01,2013-02-03 03:32:00,
2013-02-02 22:37:00,39.2,36.0,30.15,SW,228,3.0,10.0,88,0.00,,---,0.01,VWS V14.01,2013-02-03 03:37:00,
2013-02-02 22:42:00,39.3,35.8,30.15,WNW,285,5.0,7.0,87,0.00,,---,0.01,VWS V14.01,2013-02-03 03:42:00,
2013-02-02 22:47:00,39.3,35.8,30.14,West,281,8.0,10.0,87,0.00,,---,0.01,VWS V14.01,2013-02-03 03:47:00,
2013-02-02 22:52:00,39.2,35.7,30.14,SSW,210,5.0,11.0,87,0.00,,---,0.01,VWS V14.01,2013-02-03 03:52:00,
2013-02-02 22:57:00,39.1,35.8,30.13,WNW,300,2.0,10.0,88,0.00,,---,0.01,VWS V14.01,2013-02-03 03:57:00,
2013-02-02 23:02:00,38.8,35.6,30.13,West,260,7.0,9.0,88,0.00,,---,0.01,VWS V14.01,2013-02-03 04:02:00,
2013-02-02 23:07:00,38.6,35.4,30.13,WSW,258,6.0,8.0,88,0.00,,---,0.01,VWS V14.01,2013-02-03 04:07:00,
2013-02-02 23:12:00,38.5,35.3,30.13,West,260,8.0,8.0,88,0.00,,---,0.01,VWS V14.01,2013-02-03 04:12:00,
2013-02-02 23:17:00,38.3,35.3,30.13,SW,217,4.0,6.0,89,0.00,,---,0.01,VWS V14.01,2013-02-03 04:17:00,
2013-02-02 23:22:00,38.3,35.3,30.12,WSW,258,4.0,7.0,89,0.00,,---,0.01,VWS V14.01,2013-02-03 04:22:00,
2013-02-02 23:27:00,38.1,35.2,30.12,WSW,247,2.0,8.0,89,0.00,,---,0.01,VWS V14.01,2013-02-03 04:27:00,
2013-02-02 23:32:00,38.1,35.2,30.12,West,266,0.0,4.0,89,0.00,,---,0.01,VWS V14.01,2013-02-03 04:32:00,
2013-02-02 23:37:00,38.0,35.0,30.11,WSW,240,3.0,6.0,89,0.00,,---,0.01,VWS V14.01,2013-02-03 04:37:00,
2013-02-02 23:43:00,37.9,35.0,30.11,WSW,245,7.0,7.0,89,0.00,,---,0.01,VWS V14.01,2013-02-03 04:43:00,
2013-02-02 23:48:00,37.9,35.2,30.11,WSW,248,5.0,7.0,90,0.00,,---,0.01,VWS V14.01,2013-02-03 04:48:00,
2013-02-02 23:53:00,37.8,35.1,30.11,SW,233,1.0,6.0,90,0.00,,---,0.01,VWS V14.01,2013-02-03 04:53:00,
2013-02-02 23:58:00,37.8,35.1,30.11,WSW,252,2.0,8.0,90,0.00,,---,0.01,VWS V14.01,2013-02-03 04:58:00,